Fairfield, CA

6:36 PM PDT on April 29, 2017 (GMT -0700)
Travis Air Force Base

Weather History for KSUU - April, 2013

Change the Weather History Date:

Friday, April 12, 2013

  Actual Average Record
Temperature  
Mean Temperature 63 °F -  
Max Temperature 78 °F 66 °F 85 °F (2008)
Min Temperature 48 °F 43 °F 39 °F (1998)
Degree Days  
Heating Degree Days 2    
Growing Degree Days 13 (Base 50)    
Moisture  
Dew Point 50 °F    
Average Humidity 69    
Maximum Humidity 99    
Minimum Humidity 38    
Precipitation  
Precipitation 0.00 in - - ()
Sea Level Pressure  
Sea Level Pressure 29.85 in    
Wind  
Wind Speed 12 mph (WSW)    
Max Wind Speed 18 mph    
Max Gust Speed 23 mph    
Visibility 10 miles    
Events      
Averages and records for this station are not official NWS values.
T = Trace of Precipitation, MM = Missing Value Source: NWS Daily Summary

Daily Weather History Graph

Daily Weather History Graph

Search for Another Location

Airport or City:

Trip Planner

Search our weather history database for the weather conditions in past years. The results will help you decide how hot, cold, wet, or windy it might be!

Date:

Astronomy

Apr. 12, 2013 Rise Set
Actual Time 6:35 AM PDT 7:41 PM PDT
Civil Twilight 6:08 AM PDT 8:08 PM PDT
Nautical Twilight 5:36 AM PDT 8:41 PM PDT
Astronomical Twilight 5:02 AM PDT 9:14 PM PDT
Moon 7:51 AM PDT (4/12) 10:14 PM PDT (4/12)
Length of Visible Light 14h 00m
Length of Day
13h 05m
Waxing Crescent, 6% of the Moon is Illuminated
Apr 12
Waxing Crescent
Apr 18
First Quarter
Apr 25
Full
May 2
Last Quarter
May 9
New

Hourly Weather History & Observations

Time (PDT) Temp. Dew Point Humidity Pressure Visibility Wind Dir Wind Speed Gust Speed Precip Events Conditions
12:58 AM 54.7 °F 50.9 °F 87% 29.83 in 10.0 mi WSW 15.0 mph - N/A   Clear
1:58 AM 53.1 °F 48.6 °F 85% 29.84 in 10.0 mi WSW 15.0 mph - N/A   Clear
2:58 AM 50.5 °F 49.3 °F 95% 29.84 in 10.0 mi WSW 12.7 mph - N/A   Clear
3:58 AM 48.9 °F 48.7 °F 99% 29.84 in 10.0 mi WSW 11.5 mph - N/A   Clear
4:58 AM 48.7 °F 48.6 °F 99% 29.85 in 10.0 mi WSW 10.4 mph - N/A   Clear
5:58 AM 48.4 °F 48.2 °F 99% 29.85 in 10.0 mi WSW 6.9 mph - N/A   Clear
6:58 AM 48.6 °F 48.4 °F 99% 29.87 in 8.0 mi WSW 11.5 mph - N/A   Clear
7:58 AM 52.9 °F 52.5 °F 99% 29.90 in 9.0 mi WSW 9.2 mph - N/A   Clear
8:58 AM 58.8 °F 53.1 °F 81% 29.91 in 10.0 mi WSW 11.5 mph - N/A   Clear
9:58 AM 64.6 °F 50.7 °F 61% 29.91 in 10.0 mi WSW 10.4 mph - N/A   Clear
10:58 AM 68.2 °F 47.3 °F 47% 29.90 in 10.0 mi WSW 8.1 mph - N/A   Clear
11:58 AM 71.2 °F 49.5 °F 46% 29.90 in 10.0 mi SW 8.1 mph - N/A   Partly Cloudy
12:58 PM 73.2 °F 49.8 °F 44% 29.88 in 10.0 mi Variable 6.9 mph - N/A   Clear
1:58 PM 75.7 °F 48.9 °F 39% 29.86 in 10.0 mi WSW 5.8 mph - N/A   Clear
2:58 PM 77.0 °F 49.5 °F 38% 29.85 in 10.0 mi West 8.1 mph - N/A   Clear
3:58 PM 77.5 °F 51.6 °F 40% 29.82 in 10.0 mi West 12.7 mph - N/A   Clear
4:58 PM 78.3 °F 55.8 °F 46% 29.81 in 10.0 mi WSW 17.3 mph - N/A   Clear
5:58 PM 74.1 °F 49.3 °F 41% 29.80 in 10.0 mi WSW 17.3 mph - N/A   Clear
6:58 PM 68.2 °F 48.4 °F 49% 29.80 in 10.0 mi WSW 17.3 mph - N/A   Clear
7:58 PM 62.8 °F 50.5 °F 64% 29.80 in 10.0 mi SW 13.8 mph - N/A   Clear
8:58 PM 61.7 °F 45.9 °F 56% 29.82 in 10.0 mi WSW 17.3 mph - N/A   Clear
9:58 PM 57.6 °F 47.7 °F 70% 29.83 in 10.0 mi WSW 18.4 mph 23.0 mph N/A   Clear
10:58 PM 55.2 °F 48.0 °F 77% 29.84 in 10.0 mi SW 11.5 mph - N/A   Clear
11:58 PM 52.5 °F 51.1 °F 95% 29.84 in 10.0 mi WSW 13.8 mph - N/A   Clear